This demonstration page uses our WeatherBlox Daily Observations layout. Learn more.

Left ArrowRight Arrow

31.31129, -92.44514

Hourly Observations for July 18, 2022

Temp ( °F °C ) Dew Point ( °F °C ) Humidity (%) Winds ( mph kmh ) Pressure ( in mb ) Visibility ( mi km ) Precip ( " mm )
12:53 am 00:53 Clear 80 26.7 74 23.3 82 82 S 6 9 29.94 1014 9 14 0.00 0.00
1:53 am 01:53 Clear 83 28.3 74 23.3 74 74 S 8 13 29.92 1013 9 14 0.00 0.00
2:53 am 02:53 Clear 82 27.8 74 23.3 77 77 WSW 3 6 29.94 1014 9 14 0.00 0.00
3:53 am 03:53 Clear 82 27.8 74 23.3 77 77 SSW 7 11 29.94 1014 9 14 0.00 0.00
4:53 am 04:53 Clear 81 27.2 74 23.3 79 79 SSW 5 7 29.94 1014 9 14 0.00 0.00
5:53 am 05:53 Clear 81 27.2 74 23.3 79 79 WSW 3 6 29.96 1015 9 14 0.00 0.00
6:53 am 06:53 Sunny 81 27.2 74 23.3 79 79 SSW 3 6 29.96 1015 7 11 0.00 0.00
7:53 am 07:53 Sunny 81 27.2 75 23.9 82 82 SW 3 6 29.98 1015 7 11 0.00 0.00
8:53 am 08:53 Sunny 84 28.9 75 23.9 74 74 W 8 13 29.99 1016 8 13 0.00 0.00
9:53 am 09:53 Partly Cloudy 86 30 75 23.9 70 70 W 12 19 30.00 1016 8 13 0.00 0.00
10:12 am 10:12 Mostly Cloudy 87 30.6 75 23.9 67 67 WSW 12 19 29.99 1016 8 13 0.00 0.00
10:23 am 10:23 Partly Cloudy 87 30.6 74 23.3 65 65 WSW 9 15 29.99 1016 8 13 0.00 0.00
10:53 am 10:53 Partly Cloudy 89 31.7 74 23.3 61 61 W 10 17 29.99 1016 8 13 0.00 0.00
11:53 am 11:53 Partly Cloudy 93 33.9 74 23.3 54 54 WSW 9 15 29.99 1016 9 14 0.00 0.00
12:53 pm 12:53 Sunny 94 34.4 71 21.7 48 48 VRB 6 9 29.97 1015 9 14 0.00 0.00
1:53 pm 13:53 Sunny 96 35.6 72 22.2 46 46 VRB 7 11 29.95 1014 10 16 0.00 0.00
2:53 pm 14:53 Sunny 98 36.7 70 21.1 40 40 SW 9 15 29.93 1013 10 16 0.00 0.00
3:53 pm 15:53 Sunny 99 37.2 69 20.6 38 38 WSW 12 19 29.91 1013 10 16 0.00 0.00
4:53 pm 16:53 Sunny 98 36.7 67 19.4 36 36 SW 9 15 29.90 1012 10 16 0.00 0.00
5:53 pm 17:53 Sunny 97 36.1 69 20.6 40 40 WSW 12 19 29.88 1012 10 16 0.00 0.00
6:53 pm 18:53 Sunny 95 35 72 22.2 47 47 SW 6 9 29.88 1012 10 16 0.00 0.00
7:53 pm 19:53 Sunny 92 33.3 68 20 46 46 SSW 7 11 29.88 1012 10 16 0.00 0.00
8:53 pm 20:53 Clear 88 31.1 71 21.7 57 57 S 7 11 29.90 1012 10 16 0.00 0.00
9:53 pm 21:53 Clear 87 30.6 74 23.3 65 65 S 9 15 29.91 1013 10 16 0.00 0.00
10:53 pm 22:53 Clear 86 30 73 22.8 65 65 SSW 13 20 29.93 1014 10 16 0.00 0.00
11:53 pm 23:53 Clear 84 28.9 74 23.3 72 72 SSW 8 13 29.95 1014 10 16 0.00 0.00

Powered by AerisWeather